Home   Weather   Freistadt   Past weeks

Flag for Austria Past Weather in Freistadt, Upper Austria, Austria — Yesterday and Last 2 Weeks

Now
26 °F

Chilly.


Feels Like: 26 °F
Forecast: 28 / 41 °F
Wind: No wind

Location: Rohrbach

Current Time: Dec 9, 2016 at 7:08:24 am

Latest Report: Dec 9, 2016 at 6:00 am


Visibility: N/A

Pressure: 30.54 "Hg (28.43 "Hg at 565m altitude)

Humidity: 88%

Dew Point: 23 °F

Location of FreistadtLocation

Past Weather in Freistadt — Graph

°F

Freistadt Temperature Yesterday

Maximum temperature yesterday: 40 °F (at 2:00 pm)
Minimum temperature yesterday: 28 °F (at 10:00 pm)
Average temperature yesterday: 33 °F

High & Low Weather Summary for the Past Weeks

 TemperatureHumidityPressure
High44 °F (Nov 25, 3:00 pm)98% (Dec 5, 10:00 pm)30.71 "Hg (Dec 5, 10:00 pm)
Low17 °F (Dec 7, 4:00 am)49% (Nov 28, 1:00 pm)29.99 "Hg (Nov 27, 2:00 pm)
Average31 °F83%30.33 "Hg
* Reported Nov 24 5:00 am — Dec 9 5:00 am, Freistadt, Weather by CustomWeather, © 2016

Note: Actual official high and low records may vary slightly from our data, if they occured in-between our weather recording intervals... More about our weather records

Advertising

Freistadt Weather History for the Previous 24 Hours

Scroll right to see more
 ConditionsComfort  
Time TempWeatherWind HumidityBarometerVisibility
5:00 am
Fri, Dec 9
27 °FChilly.1 mph87%30.53 "HgN/A
4:00 am28 °FChilly.No wind83%30.52 "HgN/A
3:00 am31 °FChilly.1 mph79%30.53 "HgN/A
2:00 am30 °FChilly.1 mph86%30.54 "HgN/A
1:00 am30 °FChilly.1 mph87%30.53 "HgN/A
12:00 am29 °FChilly.1 mph91%30.56 "HgN/A
11:00 pm
Thu, Dec 8
29 °FChilly.1 mph84%30.57 "HgN/A
10:00 pm28 °FChilly.No wind91%30.57 "HgN/A
9:00 pm29 °FChilly.No wind94%30.57 "HgN/A
8:00 pm29 °FChilly.No wind93%30.57 "HgN/A
7:00 pm30 °FChilly.No wind92%30.57 "HgN/A
6:00 pm32 °FChilly.No wind88%30.56 "HgN/A
5:00 pm32 °FChilly.1 mph86%30.57 "HgN/A
4:00 pm35 °FChilly.1 mph84%30.55 "HgN/A
3:00 pm38 °FChilly.1 mph80%30.55 "HgN/A
2:00 pm40 °FQuite cool.1 mph70%30.55 "HgN/A
1:00 pm40 °FChilly.1 mph71%30.56 "HgN/A
12:00 pm37 °FChilly.No wind76%30.60 "HgN/A
11:00 am33 °FChilly.1 mph84%30.63 "HgN/A
Weather by CustomWeather, © 2016

See weather overviewHow to use our weather pages